カタログに戻る

CZ-4B DEB

運用中SSO
NORAD 29539·DEBRIS·🇨🇳 China

打ち上げ Apr 26, 2006 から Taiyuan Satellite Launch Center

Loading…

次のパス (今後24時間)

TLE

最新Source: Space-Track

元期: Sep 14, 2026, 10:11 UTC

1 29539U 06015F   26257.42457353  .00011765  00000-0  81025-3 0  9994
2 29539  97.7290 326.3684 0064945 115.8489 304.2076 15.04281591 82996

AllMySatでCZ-4B DEBをリアルタイム追跡

Download on the App Store